White Mountain, AK

12:50 PM AKDT on August 21, 2017 (GMT -0800)
White Mountain

Weather History for PAWM - June, 2013

Change the Weather History Date:

Wednesday, June 19, 2013

  Actual Average (PAOM) Record (PAOM)
Temperature  
Mean Temperature 76 °F -  
Max Temperature 88 °F 54 °F 86 °F (2013)
Min Temperature 63 °F 40 °F 27 °F (1929)
Cooling Degree Days 12    
Growing Degree Days 26 (Base 50)    
Moisture  
Dew Point 67 °F    
Average Humidity 73    
Maximum Humidity 82    
Minimum Humidity 59    
Precipitation  
Precipitation 0.00 in - - ()
Sea Level Pressure  
Sea Level Pressure 29.74 in    
Wind  
Wind Speed 10 mph (East)    
Max Wind Speed 18 mph    
Max Gust Speed 25 mph    
Visibility 9 miles    
Events      
Averages and records for this station are not official NWS values.
T = Trace of Precipitation, MM = Missing Value Source: NWS Daily Summary

Daily Weather History Graph

Daily Weather History Graph

Search for Another Location

Airport or City:

Trip Planner

Search our weather history database for the weather conditions in past years. The results will help you decide how hot, cold, wet, or windy it might be!

Date:

Astronomy

Jun. 19, 2013 Rise Set
Actual Time 4:05 AM AKDT 1:45 AM AKDT
Civil Twilight Sun does not set Sun does not set
Nautical Twilight Sun does not set Sun does not set
Astronomical Twilight Sun does not set Sun does not set
Moon 8:11 PM AKDT (6/19) 2:58 AM AKDT (6/19)
Length of Visible Light 24h 00m
Length of Day
21h 39m
Waxing Gibbous, 82% of the Moon is Illuminated
Jun 19
Waxing Gibbous
Jun 23
Full
Jun 29
Last Quarter
Jul 7
New
Jul 15
First Quarter

Hourly Weather History & Observations

Time (AKDT) Temp. Heat Index Dew Point Humidity Pressure Visibility Wind Dir Wind Speed Gust Speed Precip Events Conditions
12:58 AM 78.1 °F - 70.0 °F 76% 29.83 in 9.0 mi NE 11.5 mph - N/A   Clear
1:58 AM 78.1 °F - 66.9 °F 68% 29.83 in 10.0 mi ENE 10.4 mph - N/A   Clear
2:58 AM 71.1 °F - 62.1 °F 73% 29.82 in 9.0 mi NNE 10.4 mph - N/A   Clear
3:58 AM 70.0 °F - 60.1 °F 71% 29.81 in 10.0 mi NNE 9.2 mph - N/A   Clear
4:58 AM 71.1 °F - 61.0 °F 70% 29.80 in 10.0 mi NNE 8.1 mph - N/A   Clear
5:58 AM 70.0 °F - 59.0 °F 68% 29.79 in 10.0 mi North 6.9 mph - N/A   Clear
6:58 AM 71.1 °F - 55.9 °F 59% 29.78 in 9.0 mi Calm Calm - N/A   Clear
7:58 AM 70.0 °F - 57.0 °F 63% 29.77 in 9.0 mi North 3.5 mph - N/A   Clear
8:58 AM 75.9 °F - 64.9 °F 69% 29.76 in 10.0 mi North 5.8 mph - N/A   Clear
9:58 AM 79.0 °F - 70.0 °F 74% 29.74 in 10.0 mi NE 10.4 mph 16.1 mph N/A   Clear
10:58 AM 82.0 °F 87.9 °F 73.9 °F 76% 29.73 in 9.0 mi East 13.8 mph 17.3 mph N/A   Clear
11:58 AM 84.0 °F 94.8 °F 78.1 °F 82% 29.72 in 10.0 mi ENE 16.1 mph 24.2 mph N/A   Clear
12:58 PM 86.0 °F 99.3 °F 79.0 °F 79% 29.71 in 8.0 mi East 17.3 mph 25.3 mph N/A   Clear
1:58 PM 87.1 °F 101.5 °F 79.0 °F 77% 29.69 in 9.0 mi ESE 15.0 mph 24.2 mph N/A   Clear
2:58 PM 87.1 °F 103.2 °F 80.1 °F 80% 29.68 in 9.0 mi East 15.0 mph 24.2 mph N/A   Clear
3:58 PM 86.0 °F 98.3 °F 78.1 °F 77% 29.67 in 10.0 mi SE 15.0 mph - N/A   Clear
4:58 PM 84.0 °F 93.7 °F 77.0 °F 79% 29.67 in 9.0 mi SSE 18.4 mph 24.2 mph N/A   Clear
5:58 PM 82.0 °F 88.6 °F 75.0 °F 79% 29.68 in 9.0 mi South 15.0 mph 24.2 mph N/A   Clear
6:58 PM 75.0 °F - 63.0 °F 66% 29.69 in 8.0 mi SSW 17.3 mph 23.0 mph N/A   Clear
7:58 PM 71.1 °F - 57.9 °F 63% 29.71 in 9.0 mi SSW 11.5 mph - N/A   Clear
8:58 PM 69.1 °F - 57.9 °F 68% 29.71 in 9.0 mi WSW 10.4 mph - N/A   Clear
9:58 PM 66.9 °F - 57.0 °F 70% 29.72 in 9.0 mi SSW 10.4 mph - N/A   Clear
10:58 PM 66.0 °F - 57.0 °F 73% 29.72 in 9.0 mi SSW 3.5 mph - N/A   Clear
11:58 PM 63.0 °F - 57.0 °F 81% 29.74 in 9.0 mi Calm Calm - N/A   Clear